Everett, WA

9:09 PM PST on December 15, 2019 (GMT -0800)
Snohomish County

Weather History for KPAE - October, 2019

Change the Weather History Date:

Wednesday, October 9, 2019

  Actual Average Record
Temperature  
Mean Temperature 41 °F -  
Max Temperature 48 °F 63 °F 80 °F (1996)
Min Temperature 34 °F 44 °F 32 °F (1985)
Degree Days  
Heating Degree Days 24    
Moisture  
Dew Point 35 °F    
Average Humidity 85    
Maximum Humidity 100    
Minimum Humidity 41    
Precipitation  
Precipitation 0.00 in - - ()
Sea Level Pressure  
Sea Level Pressure 30.32 in    
Wind  
Wind Speed 3 mph (North)    
Max Wind Speed 7 mph    
Max Gust Speed -    
Visibility 6 miles    
Events Fog    
Averages and records for this station are not official NWS values.
T = Trace of Precipitation, MM = Missing Value Source: NWS Daily Summary

Daily Weather History Graph

Daily Weather History Graph

Search for Another Location

Airport or City:

Astronomy

Oct. 09, 2019 Rise Set
Actual Time 7:19 AM PDT 6:32 PM PDT
Civil Twilight 6:48 AM PDT 7:03 PM PDT
Nautical Twilight 6:12 AM PDT 7:39 PM PDT
Astronomical Twilight 5:36 AM PDT 8:15 PM PDT
Moon 5:29 PM PDT (10/9) 2:46 AM PDT (10/9)
Length of Visible Light 12h 15m
Length of Day
11h 13m
Waxing Gibbous, 85% of the Moon is Illuminated
Oct 9
Waxing Gibbous
Oct 13
Full
Oct 21
Last Quarter
Oct 27
New
Nov 4
First Quarter

Hourly Weather History & Observations

Time (PDT) Temp. Windchill Dew Point Humidity Pressure Visibility Wind Dir Wind Speed Gust Speed Precip Events Conditions
12:53 AM 39.9 °F 37.8 °F 36.0 °F 86% 30.16 in 10.0 mi North 3.5 mph - N/A   Clear
1:08 AM 39.0 °F 34.8 °F 37.0 °F 93% 30.16 in 2.5 mi NNE 5.8 mph - N/A   Partly Cloudy
1:11 AM 39.0 °F - 37.0 °F 93% 30.16 in 1.0 mi Calm Calm - N/A   Mist
1:18 AM 39.0 °F 36.8 °F 37.0 °F 93% 30.17 in 0.8 mi North 3.5 mph - N/A   Mist
1:35 AM 39.0 °F 35.7 °F 37.9 °F 96% 30.18 in 0.2 mi NNE 4.6 mph - N/A Fog Fog
1:42 AM 39.0 °F 35.7 °F 37.9 °F 96% 30.18 in 0.2 mi North 4.6 mph - N/A Fog Fog
1:53 AM 39.0 °F 36.8 °F 37.9 °F 96% 30.19 in 0.2 mi North 3.5 mph - N/A Fog Fog
2:49 AM 39.2 °F 37.0 °F 37.4 °F 93% 30.20 in 0.5 mi North 3.5 mph - N/A Fog Fog
2:53 AM 39.0 °F 34.8 °F 37.9 °F 96% 30.22 in 0.8 mi North 5.8 mph - N/A   Mist
2:58 AM 39.0 °F 35.7 °F 37.9 °F 96% 30.20 in 2.5 mi North 4.6 mph - N/A   Overcast
3:05 AM 37.9 °F 34.4 °F 37.9 °F 100% 30.21 in 6.0 mi North 4.6 mph - N/A   Overcast
3:44 AM 37.0 °F 34.5 °F 36.0 °F 96% 30.22 in 10.0 mi NNW 3.5 mph - N/A   Scattered Clouds
3:53 AM 37.0 °F 33.3 °F 37.0 °F 100% 30.24 in 10.0 mi North 4.6 mph - N/A   Partly Cloudy
4:53 AM 37.0 °F 34.5 °F 36.0 °F 96% 30.27 in 9.0 mi NNE 3.5 mph - N/A   Scattered Clouds
5:05 AM 37.0 °F - 37.0 °F 100% 30.26 in 3.0 mi Calm Calm - N/A   Mostly Cloudy
5:07 AM 37.0 °F - 37.0 °F 100% 30.26 in 1.5 mi Calm Calm - N/A   Mostly Cloudy
5:15 AM 36.0 °F - 36.0 °F 100% 30.26 in 0.5 mi Calm Calm - N/A Fog Fog
5:28 AM 36.0 °F - 36.0 °F 100% 30.27 in 0.5 mi Calm Calm - N/A Fog Fog
5:38 AM 36.0 °F - 36.0 °F 100% 30.27 in 2.5 mi Calm Calm - N/A   Mostly Cloudy
5:42 AM 36.0 °F - 36.0 °F 100% 30.27 in 7.0 mi Calm Calm - N/A   Scattered Clouds
5:53 AM 36.0 °F - 34.0 °F 93% 30.29 in 8.0 mi Calm Calm - N/A   Partly Cloudy
6:53 AM 35.1 °F - 34.0 °F 96% 30.31 in 8.0 mi Calm Calm - N/A   Partly Cloudy
7:40 AM 35.1 °F - 34.0 °F 96% 30.32 in 0.2 mi Calm Calm - N/A Fog Fog
7:53 AM 34.0 °F 31.0 °F 33.1 °F 96% 30.34 in 0.2 mi SE 3.5 mph - N/A Fog Fog
8:21 AM 35.1 °F 32.2 °F 35.1 °F 100% 30.34 in 0.5 mi Variable 3.5 mph - N/A Fog Fog
8:49 AM 35.6 °F - 35.6 °F 100% 30.35 in 0.2 mi Calm Calm - N/A Fog Fog
8:53 AM 36.0 °F - 36.0 °F 100% 30.37 in 0.2 mi Calm Calm - N/A Fog Fog
8:55 AM 36.0 °F - 36.0 °F 100% 30.36 in 2.0 mi Calm Calm - N/A   Mostly Cloudy
8:59 AM 36.0 °F - 36.0 °F 100% 30.36 in 0.2 mi Calm Calm - N/A Fog Fog
9:06 AM 37.0 °F - 37.0 °F 100% 30.36 in 2.0 mi Calm Calm - N/A   Mostly Cloudy
9:15 AM 37.0 °F - 37.0 °F 100% 30.36 in 5.0 mi Calm Calm - N/A   Mostly Cloudy
9:53 AM 37.9 °F 34.4 °F 36.0 °F 93% 30.39 in 10.0 mi North 4.6 mph - N/A   Mostly Cloudy
10:53 AM 39.0 °F 36.8 °F 36.0 °F 89% 30.40 in 10.0 mi NW 3.5 mph - N/A   Mostly Cloudy
11:23 AM 41.0 °F - 36.0 °F 82% 30.39 in 10.0 mi Calm Calm - N/A   Mostly Cloudy
11:30 AM 42.1 °F - 36.0 °F 79% 30.39 in 10.0 mi Calm Calm - N/A   Mostly Cloudy
11:53 AM 42.1 °F - 35.1 °F 76% 30.41 in 10.0 mi Calm Calm - N/A   Mostly Cloudy
11:56 AM 42.1 °F - 36.0 °F 79% 30.40 in 10.0 mi Calm Calm - N/A   Mostly Cloudy
12:42 PM 45.0 °F 43.5 °F 35.1 °F 68% 30.41 in 10.0 mi Variable 3.5 mph - N/A   Partly Cloudy
12:53 PM 45.0 °F 43.5 °F 34.0 °F 65% 30.42 in 10.0 mi Variable 3.5 mph - N/A   Partly Cloudy
1:53 PM 46.9 °F - 30.9 °F 54% 30.42 in 10.0 mi NNW 6.9 mph - N/A   Partly Cloudy
2:53 PM 48.0 °F - 25.0 °F 41% 30.42 in 10.0 mi North 6.9 mph - N/A   Partly Cloudy
3:53 PM 48.9 °F - 27.0 °F 43% 30.42 in 10.0 mi Variable 5.8 mph - N/A   Clear
4:53 PM 48.0 °F - 28.0 °F 46% 30.42 in 10.0 mi North 5.8 mph - N/A   Clear
5:53 PM 46.9 °F - 28.0 °F 48% 30.43 in 10.0 mi North 4.6 mph - N/A   Clear
6:53 PM 44.1 °F 41.5 °F 28.0 °F 53% 30.44 in 10.0 mi NW 4.6 mph - N/A   Clear
7:53 PM 42.1 °F 39.2 °F 28.9 °F 60% 30.45 in 10.0 mi NNW 4.6 mph - N/A   Clear
8:53 PM 42.1 °F - 30.0 °F 62% 30.46 in 10.0 mi Calm Calm - N/A   Clear
9:53 PM 43.0 °F 38.8 °F 32.0 °F 65% 30.46 in 10.0 mi NNE 6.9 mph - N/A   Clear
10:53 PM 41.0 °F 37.1 °F 30.0 °F 65% 30.48 in 10.0 mi NNE 5.8 mph - N/A   Clear
11:53 PM 39.0 °F 35.7 °F 30.0 °F 70% 30.48 in 10.0 mi NNE 4.6 mph - N/A   Clear